Location: *
(50.6089°N, 2.2719°E)
Time: 12:14:10
(UTC+00:00)

Cosmos 1898 Rocket - Pass Details

Date: 18 October 2019
Orbit: 753 x 784 km, 74.0° (Epoch: 14 November)

Event Time Altitude Azimuth Distance (km) Brightness Sun altitude
Rises 18:48:05 0° 338° (NNW) 3,247 7.2 -18.9°
Reaches altitude 10° 18:50:33 10° 344° (NNW) 2,322 6.3 -19.3°
Maximum altitude 18:55:39 48° 59° (ENE) 1,014 3.8 -20.1°
Enters shadow 18:56:42 42° 93° (E) 1,103 3.8 -20.2°
